Regional Weather Roundup
Issued by NWS Sioux Falls, SD

Home | Current Version | Previous Version | Graphics & Text | Print | Product List | Glossary On
Versions: 1 2 3 4 5 6 7 8 9 10 11 12 13 14 15 16 17 18 19 20 21 22 23 24 25 26 27 28 29 30 31 32 33 34 35 36 37 38 39 40 41 42 43 44 45 46 47 48 49 50
000
ASUS43 KFSD 270210
RWRFSD

WEATHER ROUNDUP FOR SE SOUTH DAKOTA/SW MINNESOTA/NW IOWA
NATIONAL WEATHER SERVICE SIOUX FALLS SD
900 PM CDT FRI AUG 26 2016

NOTE: "FAIR" INDICATES FEW OR NO CLOUDS BELOW 12,000 FEET WITH NO
SIGNIFICANT WEATHER AND OR OBSTRUCTIONS TO VISIBILITY.


SDZ038>040-050-052>070-270300-
SOUTHEAST SOUTH DAKOTA

CITY           SKY/WX    TMP DP  RH WIND       PRES   REMARKS
BROOKINGS      CLOUDY    65  57  75 SE7       30.06S
CHAMBERLAIN    CLOUDY    65  55  70 E7        30.02F
HURON          CLOUDY    64  57  78 E5        30.03S
MADISON        MOCLDY    64  63  94 SE13      30.06S
MITCHELL       CLOUDY    69  56  62 SE9       30.04R
SIOUX FALLS    CLOUDY    67  59  75 E10       30.06F
WINNER         FAIR      62  58  86 SE8       30.02S
YANKTON        PTCLDY    66  57  72 E7        30.04R
$$

MNZ071-072-080-081-089-090-097-098-270300-
SOUTHWEST MINNESOTA

CITY           SKY/WX    TMP DP  RH WIND       PRES   REMARKS
FAIRMONT       CLOUDY    63  61  93 E5        30.12S
JACKSON          N/A     63  57  82 E3        30.12S
LUVERNE        CLOUDY    63  55  77 E5        30.09S
MARSHALL       PTCLDY    65  58  78 SE9       30.08F
MONTEVIDEO     PTCLDY    63  57  82 S7        30.10S
PIPESTONE      CLOUDY    64  57  77 E6        30.08F
REDWOOD FALLS  PTCLDY    64  58  80 SE7       30.10F
TRACY          PTCLDY    64  60  85 SE6       30.09F
WINDOM         CLOUDY    63  59  88 E3        30.12S
WORTHINGTON    LGT RAIN  62  59  90 E6        30.11F
$$

IAZ001>003-012>014-020>022-031-032-NEZ013-014-SDZ071-270300-
NORTHWEST IOWA

CITY           SKY/WX    TMP DP  RH WIND       PRES   REMARKS
CHEROKEE       CLOUDY    65  62  90 CALM      30.10R
DENISON        CLOUDY    64  63  94 E5        30.07R FOG
ESTHERVILLE    CLOUDY    62  61  96 E5        30.11S
LE MARS        CLOUDY    68  61  77 E6        30.08S
ORANGE CITY    CLOUDY    66  63  88 E6        30.08S
SHELDON        CLOUDY    64  61  88 E7        30.08S
SIOUX CITY     CLOUDY    68  61  78 SE9       30.07R
SPENCER        CLOUDY    64  60  87 E6        30.11R
STORM LAKE     CLOUDY    64  61  88 E7        30.10R
$$

ABBREVIATIONS USED IN REMARKS
   TC - TEMPERATURE IN CELSIUS
  WCI - WIND CHILL INDEX
   HX - HEAT INDEX
  VSB - VISIBILITY





USA.gov is the U.S. government's official web portal to all federal, state and local government web resources and services.